Weather History for KC29 - August, 2013

Change the Weather History Date:

Thursday, August 22, 2013

  Actual Average (KMSN) Record (KMSN)
Temperature  
Mean Temperature 72 °F 69 °F  
Max Temperature 79 °F 79 °F 94 °F (1976)
Min Temperature 64 °F 58 °F 44 °F (1967)
Degree Days  
Heating Degree Days 0 1  
Month to date heating degree days 19  
Since 1 June heating degree days 89  
Since 1 July heating degree days 29  
Cooling Degree Days 6 5  
Month to date cooling degree days 122  
Year to date cooling degree days 478  
Since 1 June cooling degree days 448  
Growing Degree Days 22 (Base 50)    
Moisture  
Dew Point 67 °F    
Average Humidity 88    
Maximum Humidity 96    
Minimum Humidity 63    
Precipitation  
Precipitation 1.65 in 0.14 in 3.20 in (2007)
Month to date precipitation 3.10  
Year to date precipitation 23.65  
Snow  
Snow 0.00 in 0.00 in 0.00 in ()
Month to date snowfall 0.0  
Since 1 June snowfall 0.0  
Since 1 July snowfall 0.0  
Snow Depth -    
Sea Level Pressure  
Sea Level Pressure 30.07 in    
Wind  
Wind Speed 3 mph (WNW)    
Max Wind Speed 25 mph    
Max Gust Speed 40 mph    
Visibility 7 miles    
Events      
T = Trace of Precipitation, MM = Missing Value Source: NWS Daily Summary

Daily Weather History Graph

Daily Weather History Graph

Search for Another Location

Airport or City:

Trip Planner

Search our weather history database for the weather conditions in past years. The results will help you decide how hot, cold, wet, or windy it might be!

Date:

Astronomy

Aug. 22, 2013 Rise Set
Actual Time 6:11 AM CDT 7:49 PM CDT
Civil Twilight 5:41 AM CDT 8:19 PM CDT
Nautical Twilight 5:05 AM CDT 8:55 PM CDT
Astronomical Twilight 4:26 AM CDT 9:34 PM CDT
Moon 8:27 PM CDT (8/22) 8:04 AM CDT (8/22)
Length of Visible Light 14h 37m
Length of Day
13h 37m
Waning Gibbous, 96% of the Moon is Illuminated
Aug 22
Waning Gibbous
Aug 28
Last Quarter
Sep 5
New
Sep 12
First Quarter
Sep 19
Full

Hourly Weather History & Observations

Time (CDT) Temp. Dew Point Humidity Pressure Visibility Wind Dir Wind Speed Gust Speed Precip Events Conditions
12:15 AM 76.8 °F 68.0 °F 74% 30.01 in 10.0 mi WSW 3.5 mph - N/A   Clear
12:35 AM 76.1 °F 68.2 °F 76% 30.01 in 10.0 mi Calm Calm - N/A   Mostly Cloudy
12:55 AM 72.5 °F 68.9 °F 88% 30.00 in 10.0 mi Calm Calm - N/A   Scattered Clouds
1:15 AM 71.8 °F 68.9 °F 91% 30.01 in 10.0 mi Calm Calm - N/A   Clear
1:35 AM 71.2 °F 69.1 °F 93% 30.02 in 10.0 mi Calm Calm - N/A   Clear
1:55 AM 69.8 °F 67.6 °F 93% 30.02 in 7.0 mi Calm Calm - N/A   Clear
2:15 AM 69.6 °F 67.8 °F 94% 30.02 in 7.0 mi Calm Calm - N/A   Clear
2:35 AM 69.8 °F 68.0 °F 94% 30.02 in 7.0 mi Calm Calm - N/A   Clear
2:55 AM 68.4 °F 66.7 °F 95% 30.03 in 5.0 mi Calm Calm - N/A   Clear
3:15 AM 68.4 °F 67.1 °F 96% 30.03 in 7.0 mi Calm Calm - N/A   Clear
3:35 AM 66.9 °F 65.3 °F 95% 30.03 in 2.5 mi Calm Calm - N/A   Clear
3:55 AM 67.3 °F 66.0 °F 96% 30.03 in 4.0 mi Calm Calm - N/A   Clear
4:15 AM 66.9 °F 65.7 °F 96% 30.02 in 3.0 mi Calm Calm - N/A   Clear
4:35 AM 67.1 °F 65.8 °F 96% 30.02 in 4.0 mi Calm Calm - N/A   Clear
4:55 AM 66.7 °F 65.5 °F 96% 30.02 in 4.0 mi Calm Calm - N/A   Mostly Cloudy
5:15 AM 67.1 °F 65.7 °F 95% 30.02 in 4.0 mi Calm Calm - N/A   Mostly Cloudy
5:35 AM 68.0 °F 66.6 °F 95% 30.02 in 4.0 mi Calm Calm - N/A   Mostly Cloudy
5:55 AM 68.5 °F 67.3 °F 96% 30.01 in 4.0 mi Calm Calm - N/A   Scattered Clouds
6:15 AM 68.0 °F 66.6 °F 95% 30.03 in 2.5 mi West 5.8 mph - N/A   Clear
6:35 AM 69.8 °F 68.4 °F 95% 30.02 in 3.0 mi ENE 4.6 mph - N/A   Mostly Cloudy
6:55 AM 70.7 °F 69.3 °F 95% 30.01 in 3.0 mi ENE 3.5 mph - N/A   Scattered Clouds
7:15 AM 70.7 °F 69.4 °F 96% 30.01 in 4.0 mi NNE 8.1 mph - N/A   Scattered Clouds
7:35 AM 70.7 °F 68.9 °F 94% 30.04 in 4.0 mi WSW 3.5 mph - N/A   Scattered Clouds
7:55 AM 70.7 °F 68.9 °F 94% 30.04 in 4.0 mi Calm Calm - N/A   Scattered Clouds
8:15 AM 70.7 °F 68.9 °F 94% 30.05 in 3.0 mi Calm Calm - N/A   Scattered Clouds
8:35 AM 70.5 °F 68.9 °F 95% 30.05 in 3.0 mi North 3.5 mph - N/A   Mostly Cloudy
8:55 AM 71.2 °F 69.8 °F 95% 30.09 in 1.0 mi WNW 21.9 mph 28.8 mph 0.33 in   Overcast
9:15 AM 68.5 °F 67.1 °F 95% 30.10 in 0.5 mi WNW 24.2 mph 40.3 mph 0.89 in   Overcast
9:35 AM 68.9 °F 67.5 °F 95% 30.13 in 3.0 mi WNW 25.3 mph 38.0 mph 1.02 in   Overcast
9:55 AM 68.9 °F 67.3 °F 95% 30.16 in 3.0 mi NW 11.5 mph 20.7 mph 1.10 in   Overcast
10:15 AM 68.9 °F 67.5 °F 95% 30.16 in 7.0 mi West 5.8 mph - 0.04 in   Overcast
10:35 AM 68.9 °F 67.5 °F 95% 30.15 in 4.0 mi North 3.5 mph - 0.13 in   Overcast
10:55 AM 68.7 °F 67.5 °F 96% 30.13 in 4.0 mi Calm Calm - 0.16 in   Overcast
11:15 AM 69.3 °F 68.0 °F 96% 30.13 in 5.0 mi Calm Calm - 0.03 in   Overcast
11:35 AM 69.8 °F 68.0 °F 94% 30.13 in 10.0 mi Calm Calm - 0.04 in   Overcast
11:55 AM 69.8 °F 67.5 °F 92% 30.11 in 7.0 mi Calm Calm - 0.06 in   Overcast
12:15 PM 70.7 °F 67.8 °F 91% 30.10 in 10.0 mi Calm Calm - N/A   Scattered Clouds
12:35 PM 72.3 °F 68.5 °F 88% 30.09 in 10.0 mi Calm Calm - N/A   Clear
12:55 PM 72.3 °F 68.7 °F 88% 30.08 in 10.0 mi East 5.8 mph - N/A   Scattered Clouds
1:15 PM 71.8 °F 69.1 °F 91% 30.07 in 10.0 mi ENE 6.9 mph - N/A   Scattered Clouds
1:35 PM 72.5 °F 69.4 °F 90% 30.05 in 10.0 mi East 16.1 mph 19.6 mph N/A   Mostly Cloudy
1:55 PM 72.7 °F 69.6 °F 90% 30.04 in 10.0 mi ENE 6.9 mph 17.3 mph N/A   Scattered Clouds
2:15 PM 72.9 °F 68.4 °F 86% 30.04 in 10.0 mi East 12.7 mph - N/A   Clear
2:35 PM 74.1 °F 69.6 °F 86% 30.05 in 10.0 mi SE 8.1 mph - N/A   Clear
2:55 PM 74.7 °F 69.1 °F 83% 30.08 in 10.0 mi WSW 8.1 mph - N/A   Mostly Cloudy
3:15 PM 76.1 °F 68.2 °F 76% 30.08 in 10.0 mi WNW 5.8 mph - N/A   Overcast
3:35 PM 77.7 °F 66.6 °F 68% 30.08 in 10.0 mi Calm Calm - N/A   Mostly Cloudy
3:55 PM 77.4 °F 65.5 °F 67% 30.08 in 10.0 mi West 3.5 mph - N/A   Scattered Clouds
4:15 PM 78.3 °F 66.2 °F 66% 30.08 in 10.0 mi Calm Calm - N/A   Scattered Clouds
4:35 PM 79.2 °F 65.5 °F 63% 30.08 in 10.0 mi WSW 3.5 mph - N/A   Mostly Cloudy
4:55 PM 78.1 °F 66.0 °F 66% 30.08 in 10.0 mi WSW 4.6 mph - N/A   Mostly Cloudy
5:15 PM 78.8 °F 66.2 °F 65% 30.09 in 10.0 mi West 3.5 mph - N/A   Scattered Clouds
5:35 PM 79.2 °F 66.4 °F 65% 30.09 in 10.0 mi WNW 5.8 mph - N/A   Scattered Clouds
5:55 PM 78.6 °F 66.2 °F 66% 30.09 in 10.0 mi West 6.9 mph - N/A   Mostly Cloudy
6:15 PM 78.1 °F 66.2 °F 67% 30.09 in 10.0 mi West 5.8 mph - N/A   Scattered Clouds
6:35 PM 77.4 °F 66.2 °F 68% 30.09 in 10.0 mi West 6.9 mph - N/A   Clear
6:55 PM 76.5 °F 66.7 °F 72% 30.09 in 10.0 mi West 4.6 mph - N/A   Clear
7:15 PM 75.2 °F 66.6 °F 74% 30.09 in 10.0 mi Calm Calm - N/A   Clear
7:35 PM 73.9 °F 66.9 °F 79% 30.09 in 10.0 mi Calm Calm - N/A   Clear
7:55 PM 71.6 °F 68.9 °F 91% 30.10 in 10.0 mi Calm Calm - N/A   Clear
8:15 PM 70.0 °F 68.2 °F 94% 30.10 in 10.0 mi Calm Calm - N/A   Clear
8:35 PM 69.1 °F 67.3 °F 94% 30.10 in 10.0 mi Calm Calm - N/A   Clear
8:55 PM 67.8 °F 66.4 °F 95% 30.11 in 7.0 mi Calm Calm - N/A   Clear
9:15 PM 67.6 °F 66.0 °F 95% 30.12 in 2.5 mi Calm Calm - N/A   Clear
9:35 PM 66.4 °F 65.1 °F 96% 30.12 in 0.8 mi Calm Calm - N/A   Unknown
9:55 PM 66.0 °F 64.8 °F 96% 30.12 in 0.2 mi Calm Calm - N/A   Overcast
10:15 PM 65.5 °F 64.4 °F 96% 30.12 in 0.2 mi Calm Calm - N/A   Overcast
10:35 PM 64.9 °F 63.9 °F 96% 30.13 in 0.2 mi ENE 4.6 mph - N/A   Overcast
10:55 PM 66.4 °F 65.3 °F 96% 30.13 in 7.0 mi Calm Calm - N/A   Mostly Cloudy
11:15 PM 66.4 °F 65.3 °F 96% 30.13 in 7.0 mi Calm Calm - N/A   Mostly Cloudy
11:35 PM 64.9 °F 63.9 °F 96% 30.13 in 5.0 mi Calm Calm - N/A   Scattered Clouds
11:55 PM 67.3 °F 66.2 °F 96% 30.13 in 7.0 mi East 5.8 mph - N/A   Clear